Date,TemperatureHighF,TemperatureAvgF,TemperatureLowF,DewpointHighF,DewpointAvgF,DewpointLowF,HumidityHigh,HumidityAvg,HumidityLow,PressureMaxIn,PressureMinIn,WindSpeedMaxMPH,WindSpeedAvgMPH,GustSpeedMaxMPH,PrecipitationSumIn
2013-1-1,43.7,37.0,33.4,36.5,31.4,20.3,98,83,40,30.50,30.38,11,4,11,0.00
2013-1-2,46.9,36.1,32.4,42.3,25.7,8.2,98,72,22,30.38,30.20,17,2,17,0.00
2013-1-3,46.6,35.4,29.8,37.6,26.2,7.7,98,76,23,30.23,30.11,8,1,8,0.25
2013-1-4,48.4,43.2,37.2,43.5,40.7,33.3,98,92,56,30.32,30.17,14,2,14,0.04
2013-1-5,45.1,42.6,41.2,44.1,39.8,24.3,98,91,44,30.20,30.11,13,2,13,0.08
2013-1-6,44.8,42.5,39.9,42.1,36.4,29.7,98,80,57,30.20,29.99,17,5,17,0.04
2013-1-7,52.2,47.0,42.1,47.3,41.0,33.8,98,81,54,30.17,29.78,22,4,22,0.04
2013-1-8,51.1,46.4,42.4,50.4,44.9,36.1,98,95,71,30.17,29.73,26,4,26,0.75
2013-1-9,50.2,42.1,35.4,48.9,37.3,27.9,98,84,57,29.96,29.67,16,3,17,0.87
2013-1-10,39.0,35.9,33.3,35.1,32.7,27.0,98,89,63,30.14,29.94,11,2,11,0.00
2013-1-11,40.5,33.7,30.2,32.2,18.9,8.6,97,59,30,30.35,30.11,14,5,14,0.00
2013-1-12,39.4,32.5,29.5,33.1,23.8,9.9,98,75,31,30.47,30.32,11,2,11,0.00
2013-1-13,37.9,32.2,29.5,33.3,25.2,10.0,98,79,33,30.50,30.47,6,1,6,0.04
2013-1-14,39.9,33.7,30.7,30.6,23.2,11.1,96,68,32,30.58,30.47,9,1,9,0.00
2013-1-15,45.9,36.5,32.5,37.0,29.2,18.3,98,78,38,30.70,30.58,8,1,8,0.00
2013-1-16,45.1,35.5,31.5,42.1,30.8,20.3,98,86,38,30.70,30.53,9,2,9,0.00
2013-1-17,38.1,35.6,33.1,36.7,34.7,32.5,98,97,92,30.53,30.29,8,1,8,0.00
2013-1-18,40.3,36.3,34.0,38.5,34.9,33.3,98,95,85,30.35,30.29,8,3,8,0.00
2013-1-19,39.0,36.8,35.4,36.7,34.5,29.7,98,92,70,30.41,30.35,9,4,10,0.00
2013-1-20,45.7,38.5,35.6,38.1,35.0,25.7,98,89,47,30.41,30.26,11,4,11,0.00
2013-1-21,39.0,37.1,35.1,38.3,34.9,27.1,98,92,64,30.29,30.14,9,2,9,0.00
2013-1-22,40.5,36.4,33.6,37.9,33.8,24.4,98,91,55,30.14,29.94,6,1,6,0.00
2013-1-23,43.0,40.9,37.9,41.5,37.2,25.3,98,87,54,30.14,29.85,15,2,15,0.20
2013-1-24,44.2,41.2,37.9,41.9,36.5,25.5,98,85,50,30.23,30.05,7,1,7,0.13
2013-1-25,50.4,44.2,37.4,45.7,40.2,27.3,98,87,43,30.05,29.94,11,2,11,0.04
2013-1-26,45.9,41.5,37.4,40.6,35.5,27.7,98,81,54,30.05,29.88,11,2,11,0.21
2013-1-27,42.6,39.9,36.1,39.0,36.2,31.6,98,87,66,30.05,29.99,13,2,13,0.00
2013-1-28,42.3,40.3,37.8,41.2,38.4,33.1,98,93,72,30.08,29.99,8,1,8,0.13
2013-1-29,47.5,44.1,41.0,46.9,43.2,40.5,98,97,86,30.35,30.08,10,1,10,0.17
2013-1-30,48.0,46.3,44.8,47.5,45.8,44.1,98,98,97,30.38,30.32,6,0,6,0.00
2013-1-31,52.0,47.4,45.5,47.1,44.5,34.0,98,91,53,30.41,30.29,13,2,13,0.08
2013-2-1,53.2,46.0,40.8,46.4,42.5,34.0,98,89,50,30.41,30.32,11,4,11,0.04
2013-2-2,44.8,42.6,40.6,43.0,40.4,32.9,98,92,65,30.41,30.26,13,4,13,0.00
2013-2-3,48.9,44.5,40.6,45.1,40.8,32.7,98,88,57,30.32,30.20,8,2,8,0.00
2013-2-4,50.9,46.2,42.8,44.8,36.3,26.2,98,71,41,30.23,29.88,10,3,10,0.00
2013-2-5,52.2,45.7,42.1,43.9,38.2,25.5,98,77,38,29.94,29.85,22,5,22,0.17
2013-2-6,49.6,45.1,42.8,45.0,39.2,29.3,98,82,47,30.05,29.78,18,4,18,0.20
2013-2-7,52.5,43.0,36.5,43.3,31.2,16.7,98,69,27,30.20,29.78,15,4,15,0.08
2013-2-8,49.5,40.3,33.8,42.3,31.8,20.7,98,76,37,30.32,30.20,8,2,8,0.00
2013-2-9,46.8,42.2,39.0,41.4,34.7,22.1,98,78,39,30.35,30.26,8,1,8,0.00
2013-2-10,43.2,41.5,38.1,41.4,39.3,31.5,98,92,65,30.41,30.35,6,1,6,0.00
2013-2-11,47.5,43.6,40.3,43.2,36.0,22.6,98,78,38,30.38,30.32,11,1,11,0.04
2013-2-12,51.3,46.6,43.7,47.1,40.1,31.1,98,80,47,30.41,30.26,15,2,15,0.00
2013-2-13,48.9,45.8,43.9,44.6,41.0,33.1,98,84,55,30.50,30.26,13,1,14,0.00
2013-2-14,48.4,45.2,42.6,45.1,42.4,36.7,98,90,71,30.56,30.50,10,2,10,0.00
2013-2-15,58.8,47.1,39.7,45.1,38.0,25.0,98,76,28,30.56,30.20,12,4,12,0.00
2013-2-16,58.8,46.1,39.0,44.4,34.3,19.2,98,68,22,30.20,30.11,15,3,15,0.00
2013-2-17,46.4,41.1,37.9,38.1,29.4,21.4,96,65,39,30.26,30.11,8,1,8,0.00
2013-2-18,47.1,41.6,37.6,38.7,28.7,17.4,98,65,31,30.11,29.78,11,2,11,0.00
2013-2-19,54.9,42.0,35.8,38.8,28.3,14.9,95,64,27,30.02,29.75,15,3,15,0.00
2013-2-20,46.2,40.4,35.2,40.5,34.7,22.6,98,83,41,30.05,29.99,15,2,15,0.08
2013-2-21,45.7,42.2,39.7,40.5,37.4,30.0,98,84,60,30.08,29.99,17,3,17,0.04
2013-2-22,47.3,42.0,37.9,43.9,34.6,19.9,98,77,39,30.05,29.70,27,6,27,0.42
2013-2-23,50.2,42.4,35.4,38.3,25.2,18.1,98,54,29,30.38,29.91,13,4,13,0.00
2013-2-24,49.5,44.1,39.6,38.5,22.9,17.2,87,44,30,30.38,29.96,17,5,17,0.04
2013-2-25,55.9,43.6,36.0,40.3,25.9,10.6,95,56,21,30.32,29.88,17,4,17,0.13
2013-2-26,49.5,42.1,35.1,36.7,26.0,15.8,98,58,28,30.35,30.20,15,4,15,0.04
2013-2-27,48.4,43.5,38.7,44.8,39.2,27.7,98,86,48,30.32,30.20,13,2,13,0.21
2013-2-28,52.5,47.3,43.0,50.4,46.2,42.4,98,96,84,30.32,30.20,15,3,15,0.37
2013-3-1,56.8,52.5,50.7,52.3,49.4,42.6,98,90,59,30.38,30.26,17,5,17,0.13
2013-3-2,56.7,50.1,40.1,50.4,43.3,35.6,95,78,49,30.29,30.08,18,6,18,0.04
2013-3-3,54.3,41.7,34.7,40.1,29.5,16.3,98,69,27,30.32,30.20,11,3,11,0.00
2013-3-4,53.2,42.3,33.8,36.5,25.0,12.2,98,58,21,30.32,29.94,14,5,14,0.00
2013-3-5,51.1,43.5,38.1,41.5,28.9,19.0,97,59,30,29.94,29.73,10,2,10,0.04
2013-3-6,44.1,42.2,40.1,41.9,40.1,35.4,98,92,75,29.91,29.58,18,5,18,0.33
2013-3-7,53.2,44.8,40.5,43.5,38.5,21.6,98,82,35,30.11,29.91,12,2,12,0.04
2013-3-8,57.4,45.0,37.6,42.1,33.1,19.8,98,69,26,30.26,30.08,15,4,15,0.00
2013-3-9,50.4,41.7,34.9,41.7,34.2,22.1,98,78,33,30.50,30.26,7,2,7,0.00
2013-3-10,47.5,42.9,37.8,43.5,39.4,34.0,98,88,61,30.50,30.44,9,2,9,0.00
2013-3-11,52.0,46.2,42.4,47.1,39.4,25.3,98,81,37,30.47,30.17,9,1,9,0.04
2013-3-12,54.0,51.2,47.7,51.8,48.3,37.8,98,90,57,30.17,30.05,19,6,20,0.08
2013-3-13,53.6,51.0,49.1,49.6,47.2,41.5,97,87,67,30.20,30.11,21,5,21,0.00
2013-3-14,56.3,50.5,48.0,48.2,40.4,24.3,98,72,30,30.17,30.02,17,4,17,0.00
2013-3-15,60.8,52.6,47.8,48.4,40.0,30.9,98,66,34,30.20,30.14,17,4,17,0.04
2013-3-16,54.3,47.5,38.5,43.0,29.8,14.5,85,53,27,30.17,29.88,25,4,25,0.04
2013-3-17,54.5,41.8,34.5,40.1,27.2,14.0,98,63,23,30.20,29.99,17,3,17,0.00
2013-3-18,54.5,44.3,37.9,29.7,23.0,13.8,71,45,23,30.26,30.11,17,5,17,0.00
2013-3-19,54.9,43.4,37.0,43.7,31.7,12.7,98,69,21,30.26,29.61,13,3,13,0.50
2013-3-20,53.4,45.6,38.7,50.2,33.5,18.3,98,68,31,30.02,29.37,23,4,23,0.74
2013-3-21,51.4,40.9,36.5,37.4,25.5,14.9,96,58,26,30.23,30.02,21,4,21,0.00
2013-3-22,48.0,38.8,32.9,35.6,24.9,12.2,98,64,27,30.41,30.20,12,3,12,0.00
2013-3-23,49.8,40.6,35.2,36.1,24.0,12.7,97,58,24,30.41,30.32,9,2,9,0.00
2013-3-24,53.2,42.3,34.0,40.6,26.3,15.1,98,61,23,30.32,30.11,6,1,6,0.00
2013-3-25,63.9,48.6,36.3,39.2,24.6,13.5,98,48,18,30.14,29.94,8,2,8,0.00
2013-3-26,56.7,49.8,45.1,31.1,23.8,17.2,57,37,25,30.02,29.96,7,2,7,0.00
2013-3-27,54.9,48.5,44.4,43.9,33.8,23.5,95,58,37,29.99,29.94,10,1,10,0.00
2013-3-28,61.3,50.4,44.1,52.7,42.6,31.5,98,79,34,30.17,29.99,8,2,8,0.08
2013-3-29,63.3,52.1,44.2,50.2,36.8,25.2,98,63,26,30.26,30.17,12,3,12,0.00
2013-3-30,67.3,52.4,41.0,46.2,34.0,22.5,98,58,23,30.29,30.08,17,4,17,0.00
2013-3-31,70.7,55.2,44.2,40.3,29.9,21.4,81,42,20,30.08,29.91,9,2,9,0.00
2013-4-1,61.2,52.7,46.2,46.4,38.7,27.7,95,63,28,30.17,29.99,12,3,13,0.00
2013-4-2,58.8,51.5,45.7,43.9,35.3,29.1,93,56,33,30.20,30.14,11,3,12,0.00
2013-4-3,61.7,52.5,45.0,47.5,36.8,24.1,98,62,26,30.23,29.96,8,2,8,0.00
2013-4-4,54.7,51.0,48.4,53.8,47.2,36.0,98,88,57,29.96,29.64,16,2,16,0.42
2013-4-5,58.8,52.7,48.4,51.4,45.5,32.2,98,80,40,29.88,29.70,17,5,19,0.45
2013-4-6,54.5,48.5,45.3,48.6,41.6,28.9,98,79,42,29.94,29.70,17,5,17,0.50
2013-4-7,48.7,44.5,40.3,44.4,40.7,32.5,98,87,57,29.91,29.52,17,4,17,0.87
2013-4-8,55.4,48.3,41.5,43.9,38.4,28.9,98,72,38,30.29,29.88,11,2,11,0.04
2013-4-9,55.6,48.7,42.4,42.8,33.2,19.8,97,61,26,30.38,30.20,12,3,12,0.00
2013-4-10,64.8,53.1,47.3,52.3,35.8,21.7,98,57,24,30.26,29.94,17,5,17,0.33
2013-4-11,54.0,47.9,44.6,45.0,30.9,18.3,94,55,26,30.32,30.20,15,4,15,0.00
2013-4-12,46.6,43.7,40.6,45.0,35.8,21.4,98,76,37,30.20,29.70,14,3,15,0.17
2013-4-13,57.6,43.7,35.8,43.0,32.8,19.9,98,71,26,30.02,29.75,20,3,20,0.29
2013-4-14,55.6,44.7,38.3,41.2,31.6,18.0,98,67,25,30.02,29.94,17,3,17,0.04
2013-4-15,58.5,45.8,37.0,39.7,29.9,18.9,98,61,26,30.20,29.96,18,3,18,0.00
2013-4-16,60.6,47.0,37.6,44.1,29.3,17.8,98,58,22,30.41,30.20,17,3,17,0.00
2013-4-17,62.2,49.4,39.2,39.2,29.7,20.3,96,52,21,30.47,30.41,15,4,15,0.00
2013-4-18,51.1,47.6,42.4,48.4,36.0,25.2,94,66,42,30.47,30.20,16,4,16,0.04
2013-4-19,57.2,51.4,48.7,53.8,49.8,46.9,98,94,79,30.20,30.05,17,3,17,0.37
2013-4-20,57.0,49.9,44.1,48.2,43.7,29.8,98,82,38,30.29,30.20,11,2,11,0.00
2013-4-21,53.2,47.3,41.2,48.7,37.8,23.4,97,73,33,30.38,30.23,20,3,20,0.08
2013-4-22,61.5,49.3,38.7,41.5,25.8,10.9,98,50,17,30.56,30.38,17,6,17,0.00
2013-4-23,65.1,49.2,37.0,34.3,22.8,13.3,87,41,17,30.44,30.26,20,4,20,0.00
2013-4-24,68.4,53.7,41.0,44.6,26.1,15.8,95,40,17,30.35,30.05,13,3,13,0.00
2013-4-25,66.7,55.2,43.7,41.9,27.6,18.5,89,40,17,30.17,30.05,9,2,9,0.00
2013-4-26,66.0,54.4,46.4,46.9,36.4,25.5,96,56,26,30.29,30.17,8,2,8,0.00
2013-4-27,59.0,53.9,50.5,37.9,32.5,23.7,58,45,32,30.23,30.17,17,3,17,0.00
2013-4-28,63.3,53.2,48.0,47.1,34.0,19.9,95,53,21,30.23,29.96,15,4,15,0.00
2013-4-29,58.5,49.9,45.1,48.7,31.3,17.8,98,55,22,30.17,29.94,17,7,17,0.00
2013-4-30,61.0,48.7,39.2,34.3,21.9,14.2,80,37,19,30.47,30.17,15,4,15,0.00
2013-5-1,65.5,50.7,38.3,41.9,24.5,14.4,98,43,18,30.58,30.47,16,4,16,0.00
2013-5-2,73.6,55.8,43.2,32.0,23.2,15.1,62,30,17,30.56,30.38,19,5,19,0.00
2013-5-3,68.4,57.9,47.8,36.5,28.6,23.0,63,34,20,30.41,30.23,20,7,20,0.00
2013-5-4,76.8,63.7,51.1,34.2,27.9,20.1,51,28,15,30.26,30.02,21,7,21,0.00
2013-5-5,84.0,66.3,53.6,33.1,27.6,21.2,40,25,14,30.02,29.75,16,5,16,0.00
2013-5-6,80.6,65.2,52.0,51.1,33.8,23.0,92,37,15,29.88,29.75,8,2,8,0.00
2013-5-7,66.9,58.4,52.2,50.9,43.7,31.8,93,62,29,30.02,29.85,11,3,11,0.00
2013-5-8,60.3,55.4,51.6,52.5,43.8,33.8,98,68,37,30.17,30.02,9,3,9,0.00
2013-5-9,64.9,54.6,48.9,52.9,49.0,30.7,98,84,28,30.23,30.14,8,2,8,0.00
2013-5-10,73.6,60.0,48.2,51.6,41.2,29.8,98,58,22,30.23,30.11,8,2,8,0.00
2013-5-11,73.6,61.1,53.1,52.5,40.3,27.5,95,53,22,30.20,29.99,10,2,11,0.00
2013-5-12,70.5,61.9,56.8,59.0,49.9,34.5,97,69,28,30.11,30.02,12,2,12,0.00
2013-5-13,66.6,57.2,48.7,59.0,42.4,21.6,97,61,27,30.20,29.94,19,4,19,0.08
2013-5-14,63.0,54.4,46.4,46.4,31.6,20.7,98,48,21,30.23,30.11,12,3,12,0.00
2013-5-15,63.9,53.6,46.6,53.4,40.0,23.4,98,66,24,30.14,30.02,10,2,10,0.04
2013-5-16,75.6,60.3,52.2,56.3,44.7,31.5,98,64,22,30.02,29.88,14,2,14,0.00
2013-5-17,64.8,57.4,51.8,53.1,42.7,28.4,95,63,26,30.08,29.96,14,3,14,0.00
2013-5-18,62.4,55.8,50.0,49.5,39.5,26.4,95,59,28,30.29,30.08,11,2,11,0.00
2013-5-19,65.3,57.0,51.3,52.2,42.4,33.4,98,62,34,30.44,30.29,10,2,10,0.00
2013-5-20,63.1,54.8,46.9,48.7,41.1,32.2,98,65,33,30.38,29.91,15,4,15,0.00
2013-5-21,57.7,50.5,46.6,53.1,47.7,33.8,98,91,44,29.94,29.78,15,2,15,0.67
2013-5-22,54.0,49.0,46.0,50.0,47.1,40.8,98,93,65,29.96,29.85,12,2,12,0.12
2013-5-23,57.6,49.1,44.8,48.0,41.1,26.1,98,78,31,30.02,29.94,13,2,13,0.08
2013-5-24,61.7,53.7,46.2,49.5,40.8,26.1,98,67,27,30.08,29.99,13,3,13,0.00
2013-5-25,63.0,55.2,49.5,51.4,41.1,28.4,96,64,28,30.05,29.99,13,3,13,0.04
2013-5-26,63.7,55.1,50.2,54.9,47.2,35.2,98,78,37,30.02,29.96,11,2,11,0.08
2013-5-27,57.6,54.4,50.7,57.0,52.3,40.5,98,93,61,29.99,29.73,12,2,12,0.33
2013-5-28,65.5,56.4,51.4,54.3,43.4,30.7,95,66,33,29.91,29.78,16,4,16,0.04
2013-5-29,63.9,53.9,50.0,53.2,47.1,28.0,98,80,27,29.99,29.70,14,3,14,0.17
2013-5-30,64.2,55.2,48.0,48.6,39.9,26.6,96,61,26,30.26,29.96,16,3,16,0.00
2013-5-31,64.8,55.5,48.2,51.4,37.7,23.9,98,58,24,30.38,30.26,8,2,8,0.00
2013-6-1,70.3,59.0,50.9,49.3,34.2,24.6,91,44,20,30.26,30.05,14,4,14,0.00
2013-6-2,68.9,59.9,52.7,53.2,38.1,27.9,98,49,23,30.11,30.05,11,3,11,0.04
2013-6-3,66.6,57.6,50.7,53.1,44.8,34.3,98,67,33,30.14,30.05,11,2,11,0.00
2013-6-4,81.5,63.2,50.4,54.3,39.6,26.1,98,52,19,30.14,30.05,11,3,11,0.00
2013-6-5,81.5,64.4,53.4,53.6,42.3,32.4,95,50,20,30.11,30.05,13,3,13,0.00
2013-6-6,76.5,63.5,52.9,55.2,40.2,27.7,97,50,18,30.08,30.02,11,3,11,0.00
2013-6-7,68.4,60.8,54.7,51.4,41.3,29.7,85,52,25,30.17,30.02,13,3,13,0.00
2013-6-8,66.7,59.2,55.2,44.2,36.1,30.2,64,43,27,30.20,30.11,14,4,14,0.00
2013-6-9,71.1,57.9,51.8,50.9,39.2,27.1,93,54,22,30.14,30.02,15,4,15,0.00
2013-6-10,68.0,58.7,48.9,48.4,34.9,26.4,92,45,23,30.05,29.88,12,4,12,0.00
2013-6-11,68.9,58.2,51.8,45.5,32.6,20.1,64,40,17,30.11,29.96,18,3,18,0.00
2013-6-12,70.5,58.3,49.5,49.8,36.4,25.3,98,50,22,30.17,30.11,13,2,13,0.00
2013-6-13,69.6,59.2,52.7,52.2,40.1,26.2,95,56,23,30.23,30.14,9,2,9,0.00
2013-6-14,64.8,57.7,53.4,51.4,42.2,27.7,93,59,26,30.26,30.08,10,2,10,0.00
2013-6-15,78.4,62.4,49.8,51.8,40.5,28.8,98,53,20,30.08,29.94,12,3,12,0.00
2013-6-16,73.2,62.3,53.2,55.2,42.8,30.4,98,56,22,30.11,30.02,12,2,12,0.00
2013-6-17,77.9,62.6,54.3,57.0,43.2,27.3,96,58,20,30.11,29.91,13,3,13,0.00
2013-6-18,75.6,63.1,54.0,55.8,38.3,22.5,98,50,16,29.99,29.88,13,3,13,0.00
2013-6-19,68.2,59.7,54.1,53.1,42.7,29.1,93,57,24,30.02,29.94,9,2,9,0.00
2013-6-20,65.8,58.0,54.1,57.6,48.0,28.6,98,74,26,30.14,29.96,11,2,11,0.25
2013-6-21,70.0,60.1,53.4,55.0,44.7,28.4,98,65,23,30.17,30.11,8,2,8,0.00
2013-6-22,76.1,63.3,52.5,56.1,41.2,27.3,98,53,18,30.14,29.88,8,2,8,0.00
2013-6-23,70.2,62.2,57.2,63.1,54.9,38.7,98,79,34,29.88,29.61,6,1,6,0.13
2013-6-24,69.4,61.9,57.2,59.7,51.3,37.0,98,73,33,29.73,29.58,15,2,15,0.04
2013-6-25,71.8,61.1,55.9,60.4,52.6,34.3,98,79,27,29.88,29.70,19,2,19,0.46
2013-6-26,72.0,61.3,55.0,64.4,55.7,40.1,98,84,33,30.08,29.85,11,1,11,0.21
2013-6-27,66.6,61.9,57.9,64.6,60.3,57.0,98,95,78,30.23,30.08,5,0,6,0.17
2013-6-28,77.0,67.7,59.2,62.2,54.3,43.5,98,67,33,30.20,30.05,8,2,8,0.00
2013-6-29,78.4,68.4,58.8,62.8,50.2,34.7,98,60,23,30.11,29.99,9,2,9,0.00
2013-6-30,93.0,73.6,59.2,61.0,48.7,37.9,95,50,17,30.02,29.85,8,2,8,0.00
2013-7-1,84.9,72.3,63.1,60.4,48.5,37.4,88,48,20,30.02,29.94,11,2,11,0.00
2013-7-2,77.9,67.1,59.9,59.5,47.6,32.5,97,56,21,30.14,30.02,13,3,13,0.00
2013-7-3,79.9,66.5,59.5,50.2,36.2,25.9,71,35,19,30.17,30.05,13,5,14,0.00
2013-7-4,66.4,62.1,57.9,55.9,48.5,36.1,89,64,34,30.14,30.05,9,2,9,0.00
2013-7-5,70.9,63.2,54.5,56.5,46.8,35.8,98,61,29,30.05,29.96,12,3,12,0.00
2013-7-6,74.5,63.9,54.9,57.4,44.9,30.4,98,59,22,29.99,29.88,9,2,9,0.00
2013-7-7,69.3,62.6,56.1,59.4,51.7,45.7,98,70,45,29.96,29.91,13,3,13,0.00
2013-7-8,70.5,62.7,56.1,58.6,49.3,34.9,95,66,28,30.11,29.96,9,3,9,0.00
2013-7-9,81.0,66.4,57.2,58.8,45.1,32.4,98,54,20,30.14,29.99,11,3,11,0.00
2013-7-10,67.5,61.0,56.7,55.9,47.8,37.8,96,65,35,30.11,29.96,11,3,11,0.00
2013-7-11,70.3,61.3,55.4,51.8,38.2,26.6,82,48,22,30.11,30.02,13,4,13,0.00
2013-7-12,69.3,58.9,53.4,53.6,43.6,30.4,93,60,26,30.14,30.02,10,1,10,0.00
2013-7-13,74.1,62.4,50.9,54.1,38.1,22.5,98,50,16,30.23,30.14,13,3,13,0.00
2013-7-14,78.6,64.3,52.2,56.3,37.9,23.0,98,47,16,30.17,29.99,13,3,13,0.00
2013-7-15,80.4,67.4,54.9,54.9,35.8,21.2,96,40,15,30.08,29.91,21,6,21,0.00
2013-7-16,88.7,71.8,59.7,37.2,30.5,24.8,35,23,13,29.91,29.81,19,5,19,0.00
2013-7-17,73.6,65.5,60.1,54.3,42.5,32.4,77,46,24,30.20,29.88,17,3,17,0.00
2013-7-18,73.0,64.6,57.7,56.3,44.6,31.8,94,55,23,30.26,30.14,11,3,13,0.00
2013-7-19,73.6,63.7,55.0,57.9,49.8,38.8,98,66,30,30.20,30.05,9,3,9,0.00
2013-7-20,70.2,61.7,56.1,58.5,52.7,40.1,98,76,34,30.11,29.96,10,2,10,0.00
2013-7-21,68.7,61.7,56.1,60.3,52.5,38.7,98,76,34,30.02,29.91,13,3,13,0.00
2013-7-22,70.2,63.4,56.8,59.7,50.7,38.7,98,68,32,30.08,29.96,9,2,9,0.00
2013-7-23,79.3,65.9,55.4,59.0,45.9,29.1,98,58,18,30.11,29.96,10,3,10,0.00
2013-7-24,81.5,66.5,56.5,56.8,43.1,28.0,95,51,18,30.08,29.99,10,3,10,0.00
2013-7-25,78.4,64.7,55.4,55.0,43.9,32.0,94,54,20,30.14,30.05,12,4,12,0.00
2013-7-26,80.1,66.2,55.9,54.5,39.6,26.8,93,44,18,30.17,30.08,17,4,17,0.00
2013-7-27,69.6,62.2,53.4,53.1,42.1,29.1,96,54,23,30.20,30.02,8,2,8,0.00
2013-7-28,67.8,60.0,53.8,55.2,47.7,37.0,98,68,33,30.05,29.96,11,2,11,0.00
2013-7-29,70.9,61.9,53.8,55.0,45.2,32.4,98,60,25,30.02,29.96,11,2,11,0.00
2013-7-30,70.0,62.3,55.0,57.7,49.3,37.6,98,68,32,30.17,30.02,11,2,11,0.00
2013-7-31,66.6,60.2,56.1,60.8,56.0,48.0,98,87,55,30.14,29.99,11,2,11,0.00
2013-8-1,71.1,62.5,56.5,57.2,48.4,37.0,96,65,31,30.08,30.02,13,3,13,0.00
2013-8-2,63.7,59.4,57.4,60.1,57.4,50.5,98,93,65,30.17,30.05,9,1,9,0.13
2013-8-3,75.2,64.7,58.8,59.9,52.3,38.3,98,70,30,30.17,30.05,11,2,11,0.00
2013-8-4,81.5,66.4,55.2,58.1,47.9,37.6,98,59,22,30.08,29.96,15,3,15,0.00
2013-8-5,79.3,67.0,57.2,58.8,47.4,34.3,97,58,21,30.02,29.94,11,3,11,0.00
2013-8-6,78.3,65.2,55.4,55.8,44.1,32.0,96,53,20,30.02,29.94,8,3,8,0.00
2013-8-7,77.4,65.2,55.6,57.2,46.5,31.8,98,58,20,30.05,29.96,10,2,10,0.00
2013-8-8,74.5,64.3,57.4,57.9,49.8,35.4,98,65,27,30.05,29.96,10,3,11,0.00
2013-8-9,75.4,65.3,56.8,59.0,48.0,33.1,97,60,23,29.99,29.85,9,2,9,0.00
2013-8-10,73.2,64.5,57.9,62.8,56.0,45.3,98,77,40,30.02,29.91,12,3,12,0.17
2013-8-11,71.6,63.1,58.1,57.6,49.2,34.7,94,65,27,30.08,29.99,10,2,10,0.00
2013-8-12,75.6,64.3,58.3,57.2,48.0,34.0,95,61,24,30.11,30.02,11,2,11,0.00
2013-8-13,74.1,64.7,56.3,57.9,45.9,32.7,98,58,23,30.14,29.94,10,2,10,0.00
2013-8-14,78.1,64.2,56.3,64.4,51.5,32.0,98,71,20,29.99,29.91,11,2,11,0.04
2013-8-15,67.1,63.2,60.6,64.9,62.1,59.9,98,96,82,30.02,29.94,11,1,11,0.00
2013-8-16,77.4,67.4,59.0,64.2,51.6,31.6,98,65,21,30.02,29.94,13,2,13,0.00
2013-8-17,76.5,66.4,59.9,58.8,52.2,42.3,90,64,31,30.11,30.02,11,2,11,0.00
2013-8-18,79.9,64.9,57.7,58.8,50.3,35.1,98,65,22,30.14,30.08,11,2,11,0.00
2013-8-19,75.4,64.4,57.0,58.1,47.2,34.3,97,60,24,30.14,30.08,17,4,17,0.00
2013-8-20,78.1,66.1,58.1,51.6,38.3,25.7,77,40,18,30.20,30.08,17,4,17,0.00
2013-8-21,79.3,65.8,53.1,53.2,40.5,30.7,95,48,20,30.11,29.94,19,5,19,0.00
2013-8-22,78.6,66.8,55.4,54.9,40.3,31.3,93,43,21,29.96,29.81,8,2,8,0.00
2013-8-23,77.5,67.4,61.5,58.3,44.6,31.8,87,49,21,29.91,29.85,17,4,17,0.00
2013-8-24,72.9,64.7,58.1,59.4,48.9,32.9,95,63,24,29.94,29.85,13,2,13,0.00
2013-8-25,73.4,62.0,54.7,58.8,46.8,31.8,98,64,23,29.96,29.88,7,1,7,0.00
2013-8-26,78.6,64.4,58.3,58.1,48.2,30.4,93,61,18,29.96,29.88,15,2,15,0.00
2013-8-27,81.1,66.9,58.8,60.1,49.1,35.2,97,60,21,29.96,29.78,9,2,9,0.00
2013-8-28,75.6,66.2,57.9,64.4,56.3,44.2,98,75,34,29.91,29.85,10,2,10,0.13
2013-8-29,72.5,65.0,61.0,67.1,63.1,56.7,98,94,63,30.02,29.88,18,2,18,0.79
2013-8-30,74.3,65.7,59.5,62.4,50.9,31.8,98,66,22,30.17,30.02,14,4,14,0.00
2013-8-31,78.8,65.4,55.8,59.4,49.7,36.0,98,65,23,30.11,29.85,12,2,12,0.00
2013-9-1,75.2,65.3,57.0,61.3,49.7,34.9,98,64,25,29.91,29.78,11,2,11,0.00
2013-9-2,75.6,65.5,58.5,59.5,49.2,33.8,97,62,23,29.96,29.88,8,1,8,0.00
2013-9-3,75.0,63.3,60.1,65.3,59.9,46.2,98,90,46,30.05,29.96,6,1,6,0.17
2013-9-4,67.6,62.6,57.7,62.8,59.9,57.2,98,91,71,30.08,30.02,12,1,12,0.04
2013-9-5,69.4,61.3,58.8,65.5,59.5,53.1,98,94,60,30.08,29.96,13,1,13,0.29
2013-9-6,67.5,62.1,59.0,64.2,60.5,58.5,98,95,79,30.14,29.96,13,2,13,1.04
2013-9-7,72.1,63.2,59.2,63.1,58.1,48.2,98,86,46,30.11,30.05,8,1,8,0.00
2013-9-8,72.0,63.3,56.1,62.6,55.0,43.0,98,78,37,30.14,30.02,9,2,9,0.00
2013-9-9,70.9,62.1,56.8,61.7,56.4,49.6,98,84,48,30.11,29.99,9,2,9,0.00
2013-9-10,74.7,64.5,56.8,59.9,53.1,41.2,98,72,32,30.02,29.91,18,4,18,0.00
2013-9-11,86.4,70.1,58.5,62.6,50.2,38.1,97,57,19,29.96,29.88,8,1,8,0.00
2013-9-12,70.0,63.2,59.5,62.8,59.0,49.6,98,87,49,30.02,29.91,8,1,8,0.00
2013-9-13,64.4,61.4,59.4,61.2,59.7,57.0,98,94,79,29.99,29.91,9,2,9,0.00
2013-9-14,66.9,62.3,58.5,61.3,59.5,55.0,98,91,68,29.91,29.75,8,2,8,0.00
2013-9-15,64.2,60.0,57.6,62.1,59.1,57.0,98,97,86,29.85,29.73,13,1,13,0.17
2013-9-16,65.3,60.9,58.1,61.0,58.0,53.2,98,90,72,29.96,29.81,15,4,15,0.04
2013-9-17,64.0,58.6,54.5,57.6,53.8,44.4,98,85,51,29.96,29.88,6,0,6,0.00
2013-9-18,71.8,59.1,53.1,55.6,46.4,28.8,98,69,25,30.11,29.96,11,1,11,0.00
2013-9-19,77.7,59.9,50.5,55.6,44.4,30.0,98,65,20,30.08,29.78,6,1,6,0.00
2013-9-20,72.0,60.4,53.2,57.7,48.3,35.8,98,69,29,29.78,29.61,17,2,17,0.04
2013-9-21,69.3,59.7,55.0,57.0,51.9,38.3,98,79,34,29.75,29.67,8,1,8,0.04
2013-9-22,60.3,57.2,54.7,58.1,54.9,50.9,98,92,82,29.75,29.58,21,5,21,0.45
2013-9-23,62.6,55.8,50.2,55.6,52.0,43.5,98,88,53,29.99,29.75,18,4,18,0.33
2013-9-24,63.9,54.5,48.6,53.1,45.6,26.2,98,77,28,29.99,29.85,14,2,14,0.33
2013-9-25,60.8,53.4,49.3,51.1,46.2,31.3,98,80,36,30.05,29.88,17,4,17,0.00
2013-9-26,63.7,52.2,46.8,54.0,47.2,37.8,98,85,40,30.14,30.05,6,1,8,0.00
2013-9-27,58.1,55.2,49.5,54.9,52.0,48.2,98,89,74,30.14,29.88,21,4,21,0.04
2013-9-28,60.3,55.8,52.0,59.5,54.8,50.0,98,96,89,29.88,29.34,28,5,28,1.74
2013-9-29,55.4,53.3,51.6,53.8,50.6,44.4,98,91,71,29.58,29.16,22,6,22,1.04
2013-9-30,61.9,52.8,48.7,52.0,46.3,33.3,98,81,46,29.94,29.43,19,6,19,0.17
2013-10-1,59.7,51.9,46.8,49.5,44.2,28.8,98,79,33,30.11,29.91,20,4,20,0.12
2013-10-2,55.0,50.9,48.7,51.3,48.9,40.8,98,93,62,30.20,30.08,17,2,17,0.21
2013-10-3,56.8,50.8,46.4,53.6,47.0,34.9,98,88,46,30.47,30.20,5,1,8,0.00
2013-10-4,64.2,51.2,46.4,54.7,44.8,28.9,98,83,30,30.50,30.38,6,1,6,0.00
2013-10-5,64.2,53.0,46.8,55.2,47.2,38.1,98,84,43,30.38,30.14,8,1,8,0.00
2013-10-6,70.5,56.2,45.9,53.6,42.1,27.0,98,67,22,30.14,29.88,13,2,13,0.04
2013-10-7,67.1,56.3,51.1,53.6,43.9,26.2,98,69,25,30.02,29.91,14,4,14,0.04
2013-10-8,57.2,49.5,44.6,54.1,47.3,38.8,98,93,53,30.08,29.99,20,1,20,0.20
2013-10-9,59.0,49.0,42.8,52.2,44.4,35.4,98,86,45,30.17,29.96,8,0,8,0.00
2013-10-10,59.9,51.7,46.8,51.4,47.2,38.8,98,86,48,30.08,29.96,7,1,7,0.00
2013-10-11,56.1,52.1,49.6,52.0,49.3,41.0,98,91,60,30.17,30.08,8,1,8,0.00
2013-10-12,62.4,50.9,46.4,50.9,45.6,32.4,98,85,40,30.23,30.08,13,2,13,0.04
2013-10-13,61.9,49.8,44.2,52.3,44.8,35.6,98,86,40,30.38,30.23,9,1,9,0.00
2013-10-14,60.4,49.6,44.1,51.1,43.3,31.1,98,83,36,30.44,30.38,13,2,13,0.00
2013-10-15,56.7,48.4,44.4,53.6,47.3,43.3,98,96,65,30.41,30.20,6,1,6,0.00
2013-10-16,55.9,50.2,46.4,51.1,48.4,45.9,98,94,75,30.23,30.17,13,3,13,0.00
2013-10-17,57.9,50.5,46.2,50.2,48.1,45.7,98,92,64,30.29,30.23,10,2,10,0.00
2013-10-18,54.3,48.3,45.3,53.2,47.6,44.8,98,97,87,30.26,30.14,9,2,9,0.00
2013-10-19,51.3,47.3,44.4,50.0,46.6,43.9,98,97,92,30.23,30.14,8,1,8,0.00
2013-10-20,50.4,48.8,47.3,48.6,47.7,46.8,98,96,90,30.23,30.17,9,4,10,0.00
2013-10-21,51.6,48.9,47.7,50.0,48.2,47.1,98,97,92,30.20,30.11,9,4,9,0.00
2013-10-22,56.3,49.5,46.9,50.2,48.2,45.7,98,95,69,30.14,30.05,10,4,10,0.00
2013-10-23,55.0,47.9,44.6,52.5,47.1,44.1,98,97,75,30.08,29.99,8,1,8,0.00
2013-10-24,50.0,47.1,44.1,49.3,46.6,43.5,98,98,98,30.14,30.02,6,0,6,0.00
2013-10-25,53.2,49.6,46.2,51.4,48.7,45.7,98,97,83,30.32,30.14,11,2,11,0.00
2013-10-26,58.1,50.8,46.0,50.2,46.0,37.4,98,85,50,30.35,30.20,14,3,14,0.00
2013-10-27,57.9,52.5,47.3,49.5,37.9,22.3,98,66,27,30.20,29.91,27,8,27,0.13
2013-10-28,59.2,53.6,45.5,26.4,18.6,13.5,41,25,19,29.96,29.88,32,12,32,0.00
2013-10-29,55.4,45.8,38.8,44.4,33.4,22.6,98,66,30,30.05,29.94,9,2,11,0.00
2013-10-30,55.9,47.8,40.1,43.2,36.5,26.6,98,69,39,30.14,30.05,17,2,17,0.00
2013-10-31,55.2,51.6,49.3,51.6,45.2,32.5,98,80,50,30.26,30.08,17,2,17,0.00
2013-11-1,58.5,53.6,51.1,51.6,48.7,40.6,98,85,53,30.29,29.85,9,2,9,0.00
2013-11-2,53.2,52.3,51.6,52.2,51.6,51.1,98,98,93,29.85,29.46,23,4,23,0.33
2013-11-5,48.6,48.5,48.2,46.0,45.7,44.8,91,90,89,30.26,30.23,8,5,8,0.00
2013-11-6,52.5,48.2,45.0,49.6,45.6,38.1,98,92,61,30.32,30.02,6,1,8,0.08
2013-11-7,52.2,49.4,47.3,51.6,48.5,45.5,98,97,89,30.02,29.70,15,4,18,0.79
2013-11-8,55.6,47.8,43.2,46.4,42.1,30.9,98,83,39,30.17,29.96,5,1,8,0.00
2013-11-9,50.4,46.2,42.6,48.6,45.0,38.5,98,96,66,30.17,30.08,8,1,8,0.08
2013-11-10,50.2,47.5,45.7,46.2,44.8,40.6,98,90,72,30.17,30.11,15,6,15,0.00
2013-11-11,56.8,47.8,43.0,48.2,44.0,34.3,98,88,46,30.17,29.99,9,2,9,0.00
2013-11-12,59.4,51.9,46.0,54.9,50.2,44.8,98,94,70,30.35,30.02,13,2,13,0.17
2013-11-13,55.6,51.7,48.9,51.1,49.3,45.7,98,92,72,30.44,30.32,14,1,14,0.17
2013-11-14,51.6,47.9,43.7,48.6,46.7,43.0,98,96,74,30.32,30.05,6,0,6,0.04
2013-11-15,48.9,45.7,41.9,48.0,43.6,39.2,98,93,74,30.05,29.31,25,3,25,0.00
2013-11-16,52.0,44.0,37.6,44.1,29.6,19.2,98,61,31,29.75,29.34,12,2,12,0.00
2013-11-17,52.3,46.8,41.2,46.8,41.5,27.7,98,83,55,29.91,29.75,17,4,17,0.00
2013-11-18,52.2,49.8,47.3,51.6,48.8,43.7,98,97,85,29.91,29.55,17,4,17,0.83
2013-11-19,52.7,45.0,38.7,52.2,33.4,7.3,98,69,28,30.08,29.52,18,6,18,0.08
2013-11-20,45.5,38.1,33.3,28.9,17.4,9.0,81,44,28,30.50,30.08,19,8,19,0.00
2013-11-21,45.5,37.3,32.7,29.8,18.6,10.2,86,49,25,30.67,30.50,14,6,14,0.00
2013-11-22,47.3,37.9,32.4,33.3,24.2,14.4,98,61,27,30.64,30.44,13,5,13,0.00
2013-11-23,50.4,40.1,33.8,40.6,32.3,20.8,98,78,33,30.47,30.20,8,2,8,0.00
2013-11-24,48.4,39.8,36.0,46.8,38.4,33.6,98,95,57,30.26,30.17,8,1,8,0.00
2013-11-25,52.3,41.4,36.7,43.0,38.2,31.8,98,90,49,30.32,30.26,8,1,8,0.00
2013-11-26,50.0,43.1,36.9,43.9,37.7,30.4,98,83,51,30.26,30.08,8,1,8,0.00
2013-11-27,56.8,45.9,39.2,45.1,39.7,29.1,98,82,37,30.08,29.96,8,1,8,0.00
2013-11-28,43.3,40.2,36.7,42.8,39.7,36.1,98,98,98,30.17,30.02,5,0,5,0.00
2013-11-29,47.7,43.7,40.3,47.1,43.2,39.7,98,98,98,30.32,30.17,6,0,6,0.00
2013-11-30,49.8,48.0,43.7,48.4,45.8,41.5,98,93,74,30.32,30.08,18,4,18,0.00
2013-12-1,53.8,51.2,44.8,52.5,44.6,23.4,98,80,39,30.08,29.70,22,5,22,0.04
2013-12-2,46.6,39.8,36.0,38.1,25.1,11.3,98,58,34,30.05,29.78,19,3,19,0.00
2013-12-3,41.7,35.8,30.7,17.2,8.3,3.6,55,32,23,30.32,30.05,26,10,26,0.00
2013-12-4,41.4,33.0,29.3,22.3,15.1,7.7,75,49,28,30.35,30.29,12,5,12,0.00
2013-12-5,33.6,30.1,27.3,30.4,20.2,1.8,98,70,28,30.32,30.17,14,2,14,0.00
2013-12-6,34.7,30.0,26.8,3.2,-2.3,-6.2,31,24,22,30.23,30.11,17,8,17,0.00
2013-12-7,32.0,26.4,23.2,7.2,-2.8,-7.4,49,28,23,30.44,30.23,15,7,18,0.00
2013-12-8,34.2,27.3,22.8,14.9,5.0,-0.8,63,39,25,30.58,30.41,7,2,7,0.00
2013-12-9,32.2,29.1,24.6,20.3,9.8,3.9,63,44,31,30.58,30.47,8,1,8,0.00
2013-12-10,38.5,34.4,31.6,34.3,27.2,20.3,98,76,51,30.50,30.41,6,0,6,0.00
2013-12-11,38.3,34.2,31.6,37.8,33.6,31.1,98,98,98,30.41,30.17,8,1,8,0.00
2013-12-12,42.4,37.2,30.4,41.7,35.5,26.2,98,94,54,30.17,30.02,18,2,18,0.04
2013-12-13,47.3,44.6,41.4,46.6,44.0,40.8,98,97,95,30.41,30.11,11,2,11,0.00
2013-12-14,47.8,46.2,44.1,45.9,43.8,40.1,98,91,75,30.44,30.32,16,3,16,0.00
2013-12-15,50.5,47.7,45.9,48.7,46.7,44.4,98,96,91,30.44,30.29,16,3,16,0.00
2013-12-16,49.5,44.3,39.4,48.9,43.2,36.7,98,96,65,30.50,30.26,11,0,11,0.04
2013-12-17,44.2,41.5,40.5,43.5,40.8,39.4,98,97,89,30.26,30.08,8,1,8,0.00
2013-12-18,44.4,41.6,37.0,42.6,30.8,12.9,98,70,29,30.14,30.02,20,4,20,0.00
2013-12-19,41.5,37.0,33.4,27.7,10.0,4.8,66,33,23,30.35,30.14,23,4,23,0.00
2013-12-20,41.4,37.0,32.9,40.8,32.3,13.1,98,86,41,30.20,29.73,24,-1,24,0.04
2013-12-21,43.7,42.4,41.0,43.2,41.8,40.5,98,98,96,30.17,29.85,9,2,9,0.08
2013-12-22,49.5,45.8,43.2,48.9,45.3,42.6,98,98,97,30.29,30.17,18,1,18,0.17
2013-12-23,59.0,48.1,39.4,49.5,39.7,20.1,98,77,27,30.53,30.11,19,4,19,0.00
2013-12-24,46.9,39.8,35.2,46.4,38.3,30.7,98,95,58,30.64,30.53,6,0,6,0.00
2013-12-25,44.6,37.9,34.7,39.6,35.6,26.8,98,92,53,30.56,30.41,8,1,8,0.00
2013-12-26,40.6,36.7,33.4,39.9,36.1,32.9,98,98,94,30.44,30.23,6,0,6,0.00
2013-12-27,46.0,40.9,34.5,45.1,40.2,34.0,98,97,80,30.38,30.11,13,1,13,0.04
2013-12-28,46.2,42.7,37.9,45.7,42.1,37.4,98,98,97,30.56,30.38,6,0,6,0.00
2013-12-29,44.6,41.1,38.8,41.5,40.0,38.3,98,96,82,30.50,30.32,7,1,7,0.00
2013-12-30,43.2,41.3,38.5,42.3,40.7,37.9,98,98,94,30.35,30.14,14,1,14,0.00
2013-12-31,45.5,43.4,40.8,44.6,42.1,38.5,98,95,78,30.41,30.20,7,1,7,0.00
2014-1-1,43.9,41.8,39.0,43.3,41.3,38.5,98,98,98,30.44,30.26,7,1,7,0.00
2014-1-2,52.0,46.0,41.7,46.6,39.4,21.4,98,82,31,30.26,29.91,15,3,15,0.20